Time,TemperatureF,DewpointF,PressureIn,WindDirection,WindDirectionDegrees,WindSpeedMPH,WindSpeedGustMPH,Humidity,HourlyPrecipIn,Conditions,Clouds,dailyrainin,SolarRadiationWatts/m^2,SoftwareType,DateUTC
2013-01-13 00:02:00,22.0,19.0,-100.00,NNW,335,0.0,2.0,89,0.00,,,0.00,0.000000,,2013-01-13 08:02:00,
2013-01-13 00:32:00,22.0,19.0,-100.00,WNW,298,0.0,3.0,87,0.00,,,0.00,0.000000,,2013-01-13 08:32:00,
2013-01-13 00:42:00,22.0,19.0,-100.00,WNW,298,0.0,3.0,87,0.00,,,0.00,0.000000,,2013-01-13 08:42:00,
2013-01-13 00:52:00,22.0,19.0,-100.00,WNW,298,0.0,3.0,87,0.00,,,0.00,0.000000,,2013-01-13 08:52:00,
2013-01-13 01:02:00,22.0,19.0,-100.00,WNW,298,0.0,3.0,87,0.00,,,0.00,0.000000,,2013-01-13 09:02:00,
2013-01-13 01:22:00,23.0,18.0,-100.00,NW,325,0.0,4.0,81,0.00,,,0.00,0.000000,,2013-01-13 09:22:00,
2013-01-13 01:32:00,23.0,18.0,-100.00,NW,325,0.0,4.0,81,0.00,,,0.00,0.000000,,2013-01-13 09:32:00,
2013-01-13 01:42:00,23.0,18.0,-100.00,NW,325,0.0,4.0,81,0.00,,,0.00,0.000000,,2013-01-13 09:42:00,
2013-01-13 01:52:00,23.0,18.0,-100.00,NW,325,0.0,4.0,81,0.00,,,0.00,0.000000,,2013-01-13 09:52:00,
2013-01-13 02:02:00,23.0,18.0,-100.00,NW,325,0.0,4.0,81,0.00,,,0.00,0.000000,,2013-01-13 10:02:00,
2013-01-13 02:32:00,30.0,12.0,-100.00,ENE,69,4.0,8.0,46,0.00,,,0.00,0.000000,,2013-01-13 10:32:00,
2013-01-13 02:42:00,30.0,12.0,-100.00,ENE,69,4.0,8.0,46,0.00,,,0.00,0.000000,,2013-01-13 10:42:00,
2013-01-13 02:52:00,30.0,12.0,-100.00,ENE,69,4.0,8.0,46,0.00,,,0.00,0.000000,,2013-01-13 10:52:00,
2013-01-13 03:02:00,30.0,12.0,-100.00,ENE,69,4.0,8.0,46,0.00,,,0.00,0.000000,,2013-01-13 11:02:00,
2013-01-13 03:33:00,31.0,16.0,-100.00,ENE,64,4.0,9.0,53,0.00,,,0.00,0.000000,,2013-01-13 11:33:00,
2013-01-13 03:42:00,31.0,16.0,-100.00,ENE,64,4.0,9.0,53,0.00,,,0.00,0.000000,,2013-01-13 11:42:00,
2013-01-13 03:52:00,31.0,16.0,-100.00,ENE,64,4.0,9.0,53,0.00,,,0.00,0.000000,,2013-01-13 11:52:00,
2013-01-13 04:02:00,31.0,16.0,-100.00,ENE,64,4.0,9.0,53,0.00,,,0.00,0.000000,,2013-01-13 12:02:00,
2013-01-13 04:33:00,32.0,18.0,-100.00,ENE,75,4.0,10.0,55,0.00,,,0.00,0.000000,,2013-01-13 12:33:00,
2013-01-13 04:42:00,32.0,18.0,-100.00,ENE,75,4.0,10.0,55,0.00,,,0.00,0.000000,,2013-01-13 12:42:00,
2013-01-13 04:53:00,32.0,18.0,-100.00,ENE,75,4.0,10.0,55,0.00,,,0.00,0.000000,,2013-01-13 12:53:00,
2013-01-13 05:02:00,32.0,18.0,-100.00,ENE,75,4.0,10.0,55,0.00,,,0.00,0.000000,,2013-01-13 13:02:00,
2013-01-13 05:22:00,32.0,19.0,-100.00,ENE,60,5.0,8.0,58,0.00,,,0.00,0.000000,,2013-01-13 13:22:00,
2013-01-13 05:33:00,32.0,19.0,-100.00,ENE,60,5.0,8.0,58,0.00,,,0.00,0.000000,,2013-01-13 13:33:00,
2013-01-13 05:42:00,32.0,19.0,-100.00,ENE,60,5.0,8.0,58,0.00,,,0.00,0.000000,,2013-01-13 13:42:00,
2013-01-13 05:53:00,32.0,19.0,-100.00,ENE,60,5.0,8.0,58,0.00,,,0.00,0.000000,,2013-01-13 13:53:00,
2013-01-13 06:02:00,32.0,19.0,-100.00,ENE,60,5.0,8.0,58,0.00,,,0.00,0.000000,,2013-01-13 14:02:00,
2013-01-13 06:33:00,33.0,17.0,-100.00,NE,49,7.0,11.0,51,0.00,,,0.00,0.000000,,2013-01-13 14:33:00,
2013-01-13 06:43:00,33.0,17.0,-100.00,NE,49,7.0,11.0,51,0.00,,,0.00,0.000000,,2013-01-13 14:43:00,
2013-01-13 06:53:00,33.0,17.0,-100.00,NE,49,7.0,11.0,51,0.00,,,0.00,0.000000,,2013-01-13 14:53:00,
2013-01-13 07:02:00,33.0,17.0,-100.00,NE,49,7.0,11.0,51,0.00,,,0.00,0.000000,,2013-01-13 15:02:00,
2013-01-13 07:03:00,33.0,8.0,-100.00,NE,50,6.0,11.0,34,0.00,,,0.00,0.000000,,2013-01-13 15:03:00,
2013-01-13 07:23:00,33.0,8.0,-100.00,NE,50,6.0,11.0,34,0.00,,,0.00,0.000000,,2013-01-13 15:23:00,
2013-01-13 07:33:00,33.0,8.0,-100.00,NE,50,6.0,11.0,34,0.00,,,0.00,0.000000,,2013-01-13 15:33:00,
2013-01-13 07:43:00,33.0,8.0,-100.00,NE,50,6.0,11.0,34,0.00,,,0.00,0.000000,,2013-01-13 15:43:00,
2013-01-13 07:53:00,33.0,8.0,-100.00,NE,50,6.0,11.0,34,0.00,,,0.00,0.000000,,2013-01-13 15:53:00,
2013-01-13 08:33:00,34.0,7.0,-100.00,NE,50,6.0,12.0,32,0.00,,,0.00,0.000000,,2013-01-13 16:33:00,
2013-01-13 08:43:00,34.0,7.0,-100.00,NE,50,6.0,12.0,32,0.00,,,0.00,0.000000,,2013-01-13 16:43:00,
2013-01-13 08:53:00,34.0,7.0,-100.00,NE,50,6.0,12.0,32,0.00,,,0.00,0.000000,,2013-01-13 16:53:00,
2013-01-13 09:02:00,34.0,7.0,-100.00,NE,50,6.0,12.0,32,0.00,,,0.00,0.000000,,2013-01-13 17:02:00,
2013-01-13 09:33:00,39.0,12.0,-100.00,ENE,67,6.0,13.0,32,0.00,,,0.00,249.000000,,2013-01-13 17:33:00,
2013-01-13 09:43:00,39.0,12.0,-100.00,ENE,67,6.0,13.0,32,0.00,,,0.00,249.000000,,2013-01-13 17:43:00,
2013-01-13 09:53:00,39.0,12.0,-100.00,ENE,67,6.0,13.0,32,0.00,,,0.00,249.000000,,2013-01-13 17:53:00,
2013-01-13 10:02:00,39.0,12.0,-100.00,ENE,67,6.0,13.0,32,0.00,,,0.00,249.000000,,2013-01-13 18:02:00,
2013-01-13 10:33:00,42.0,14.0,-100.00,East,82,7.0,16.0,31,0.00,,,0.00,378.000000,,2013-01-13 18:33:00,
2013-01-13 10:43:00,42.0,14.0,-100.00,East,82,7.0,16.0,31,0.00,,,0.00,378.000000,,2013-01-13 18:43:00,
2013-01-13 10:53:00,42.0,14.0,-100.00,East,82,7.0,16.0,31,0.00,,,0.00,378.000000,,2013-01-13 18:53:00,
2013-01-13 11:02:00,42.0,14.0,-100.00,East,82,7.0,16.0,31,0.00,,,0.00,378.000000,,2013-01-13 19:02:00,
2013-01-13 11:33:00,43.0,14.0,-100.00,SE,139,6.0,14.0,31,0.00,,,0.00,465.000000,,2013-01-13 19:33:00,
2013-01-13 11:43:00,43.0,14.0,-100.00,SE,139,6.0,14.0,31,0.00,,,0.00,465.000000,,2013-01-13 19:43:00,
2013-01-13 11:53:00,43.0,14.0,-100.00,SE,139,6.0,14.0,31,0.00,,,0.00,465.000000,,2013-01-13 19:53:00,
2013-01-13 12:02:00,43.0,14.0,-100.00,SE,139,6.0,14.0,31,0.00,,,0.00,465.000000,,2013-01-13 20:02:00,
2013-01-13 12:33:00,45.0,14.0,-100.00,ESE,103,3.0,12.0,28,0.00,,,0.00,477.000000,,2013-01-13 20:33:00,
2013-01-13 12:43:00,45.0,14.0,-100.00,ESE,103,3.0,12.0,28,0.00,,,0.00,477.000000,,2013-01-13 20:43:00,
2013-01-13 12:53:00,45.0,14.0,-100.00,ESE,103,3.0,12.0,28,0.00,,,0.00,477.000000,,2013-01-13 20:53:00,
2013-01-13 13:02:00,45.0,14.0,-100.00,ESE,103,3.0,12.0,28,0.00,,,0.00,477.000000,,2013-01-13 21:02:00,
2013-01-13 13:33:00,45.0,12.0,-100.00,South,179,2.0,10.0,26,0.00,,,0.00,431.000000,,2013-01-13 21:33:00,
2013-01-13 13:43:00,45.0,12.0,-100.00,South,179,2.0,10.0,26,0.00,,,0.00,431.000000,,2013-01-13 21:43:00,
2013-01-13 13:53:00,45.0,12.0,-100.00,South,179,2.0,10.0,26,0.00,,,0.00,431.000000,,2013-01-13 21:53:00,
2013-01-13 14:02:00,45.0,12.0,-100.00,South,179,2.0,10.0,26,0.00,,,0.00,431.000000,,2013-01-13 22:02:00,
2013-01-13 14:23:00,45.0,13.0,-100.00,South,171,3.0,12.0,27,0.00,,,0.00,327.000000,,2013-01-13 22:23:00,
2013-01-13 14:33:00,45.0,13.0,-100.00,South,171,3.0,12.0,27,0.00,,,0.00,327.000000,,2013-01-13 22:33:00,
2013-01-13 14:43:00,45.0,13.0,-100.00,South,171,3.0,12.0,27,0.00,,,0.00,327.000000,,2013-01-13 22:43:00,
2013-01-13 14:52:00,45.0,13.0,-100.00,South,171,3.0,12.0,27,0.00,,,0.00,327.000000,,2013-01-13 22:52:00,
2013-01-13 15:02:00,45.0,13.0,-100.00,South,171,3.0,12.0,27,0.00,,,0.00,327.000000,,2013-01-13 23:02:00,
2013-01-13 15:33:00,45.0,15.0,-100.00,SSW,201,4.0,13.0,30,0.00,,,0.00,175.000000,,2013-01-13 23:33:00,
2013-01-13 15:43:00,45.0,15.0,-100.00,SSW,201,4.0,13.0,30,0.00,,,0.00,175.000000,,2013-01-13 23:43:00,
2013-01-13 15:53:00,45.0,15.0,-100.00,SSW,201,4.0,13.0,30,0.00,,,0.00,175.000000,,2013-01-13 23:53:00,
2013-01-13 16:02:00,45.0,15.0,-100.00,SSW,201,4.0,13.0,30,0.00,,,0.00,175.000000,,2013-01-14 00:02:00,
2013-01-13 16:33:00,43.0,23.0,-100.00,West,277,8.0,16.0,44,0.00,,,0.00,0.000000,,2013-01-14 00:33:00,
2013-01-13 16:43:00,43.0,23.0,-100.00,West,277,8.0,16.0,44,0.00,,,0.00,0.000000,,2013-01-14 00:43:00,
2013-01-13 16:53:00,43.0,23.0,-100.00,West,277,8.0,16.0,44,0.00,,,0.00,0.000000,,2013-01-14 00:53:00,
2013-01-13 17:02:00,43.0,23.0,-100.00,West,277,8.0,16.0,44,0.00,,,0.00,0.000000,,2013-01-14 01:02:00,
2013-01-13 17:33:00,38.0,24.0,-100.00,WNW,289,4.0,14.0,57,0.00,,,0.00,0.000000,,2013-01-14 01:33:00,
2013-01-13 17:42:00,38.0,24.0,-100.00,WNW,289,4.0,14.0,57,0.00,,,0.00,0.000000,,2013-01-14 01:42:00,
2013-01-13 17:52:00,38.0,24.0,-100.00,WNW,289,4.0,14.0,57,0.00,,,0.00,0.000000,,2013-01-14 01:52:00,
2013-01-13 18:02:00,38.0,24.0,-100.00,WNW,289,4.0,14.0,57,0.00,,,0.00,0.000000,,2013-01-14 02:02:00,
2013-01-13 18:33:00,34.0,23.0,-100.00,WNW,299,0.0,8.0,65,0.00,,,0.00,0.000000,,2013-01-14 02:33:00,
2013-01-13 18:43:00,34.0,23.0,-100.00,WNW,299,0.0,8.0,65,0.00,,,0.00,0.000000,,2013-01-14 02:43:00,
2013-01-13 18:53:00,34.0,23.0,-100.00,WNW,299,0.0,8.0,65,0.00,,,0.00,0.000000,,2013-01-14 02:53:00,
2013-01-13 19:02:00,34.0,23.0,-100.00,WNW,299,0.0,8.0,65,0.00,,,0.00,0.000000,,2013-01-14 03:02:00,
2013-01-13 19:33:00,34.0,25.0,-100.00,North,5,0.0,4.0,70,0.00,,,0.00,0.000000,,2013-01-14 03:33:00,
2013-01-13 19:43:00,34.0,25.0,-100.00,North,5,0.0,4.0,70,0.00,,,0.00,0.000000,,2013-01-14 03:43:00,
2013-01-13 19:53:00,34.0,25.0,-100.00,North,5,0.0,4.0,70,0.00,,,0.00,0.000000,,2013-01-14 03:53:00,
2013-01-13 20:02:00,34.0,25.0,-100.00,North,5,0.0,4.0,70,0.00,,,0.00,0.000000,,2013-01-14 04:02:00,
2013-01-13 20:03:00,35.0,26.0,-100.00,WNW,301,0.0,5.0,68,0.00,,,0.00,0.000000,,2013-01-14 04:03:00,
2013-01-13 20:32:00,35.0,26.0,-100.00,WNW,301,0.0,5.0,68,0.00,,,0.00,0.000000,,2013-01-14 04:32:00,
2013-01-13 20:42:00,35.0,26.0,-100.00,WNW,301,0.0,5.0,68,0.00,,,0.00,0.000000,,2013-01-14 04:42:00,
2013-01-13 20:53:00,35.0,26.0,-100.00,WNW,301,0.0,5.0,68,0.00,,,0.00,0.000000,,2013-01-14 04:53:00,
2013-01-13 21:22:00,31.0,25.0,-100.00,NE,50,2.0,6.0,77,0.00,,,0.00,0.000000,,2013-01-14 05:22:00,
2013-01-13 21:33:00,31.0,25.0,-100.00,NE,50,2.0,6.0,77,0.00,,,0.00,0.000000,,2013-01-14 05:33:00,
2013-01-13 21:43:00,31.0,25.0,-100.00,NE,50,2.0,6.0,77,0.00,,,0.00,0.000000,,2013-01-14 05:43:00,
2013-01-13 21:52:00,31.0,25.0,-100.00,NE,50,2.0,6.0,77,0.00,,,0.00,0.000000,,2013-01-14 05:52:00,
2013-01-13 22:02:00,31.0,25.0,-100.00,NE,50,2.0,6.0,77,0.00,,,0.00,0.000000,,2013-01-14 06:02:00,
2013-01-13 22:23:00,33.0,17.0,-100.00,ENE,57,3.0,7.0,51,0.00,,,0.00,0.000000,,2013-01-14 06:23:00,
2013-01-13 22:33:00,33.0,17.0,-100.00,ENE,57,3.0,7.0,51,0.00,,,0.00,0.000000,,2013-01-14 06:33:00,
2013-01-13 22:43:00,33.0,17.0,-100.00,ENE,57,3.0,7.0,51,0.00,,,0.00,0.000000,,2013-01-14 06:43:00,
2013-01-13 22:52:00,33.0,17.0,-100.00,ENE,57,3.0,7.0,51,0.00,,,0.00,0.000000,,2013-01-14 06:52:00,
2013-01-13 23:01:00,33.0,17.0,-100.00,ENE,57,3.0,7.0,51,0.00,,,0.00,0.000000,,2013-01-14 07:01:00,
2013-01-13 23:33:00,32.0,14.0,-100.00,East,82,2.0,6.0,46,0.00,,,0.00,0.000000,,2013-01-14 07:33:00,
2013-01-13 23:43:00,32.0,14.0,-100.00,East,82,2.0,6.0,46,0.00,,,0.00,0.000000,,2013-01-14 07:43:00,
2013-01-13 23:52:00,32.0,14.0,-100.00,East,82,2.0,6.0,46,0.00,,,0.00,0.000000,,2013-01-14 07:52:00,